Weather History for Dayton Wright, OH

Change the Weather History Date:

Wednesday, December 5, 2012

  Actual Average (KFFO) Record (KFFO)
Temperature  
Mean Temperature 36 °F -  
Max Temperature 43 °F 43 °F 68 °F (2001)
Min Temperature 28 °F 28 °F 14 °F (2008)
Degree Days  
Heating Degree Days 30    
Moisture  
Dew Point 33 °F    
Average Humidity 85    
Maximum Humidity 100    
Minimum Humidity 58    
Precipitation  
Precipitation 0.00 in - - ()
Sea Level Pressure  
Sea Level Pressure 30.29 in    
Wind  
Wind Speed 4 mph (NNE)    
Max Wind Speed 9 mph    
Max Gust Speed -    
Visibility 7 miles    
Events Fog    
Averages and records for this station are not official NWS values.
T = Trace of Precipitation, MM = Missing Value Source: NWS Daily Summary

Daily Weather History Graph

Daily Weather History Graph

Search for Another Location

Airport:

Trip Planner

Search our weather history database for the weather conditions in past years. The results will help you decide how hot, cold, wet, or windy it might be!

Date:

Astronomy

Dec. 05, 2012 Rise Set
Actual Time 7:42 AM EST 5:12 PM EST
Civil Twilight 7:12 AM EST 5:42 PM EST
Nautical Twilight 6:39 AM EST 6:16 PM EST
Astronomical Twilight 6:06 AM EST 6:48 PM EST
Moon No Moon Rise 12:06 PM EST (12/5)
Length of Visible Light 10h 30m
Length of Day
9h 30m
Waning Gibbous, 60% of the Moon is Illuminated
Dec 5
Waning Gibbous
Dec 6
Last Quarter
Dec 13
New
Dec 20
First Quarter
Dec 28
Full

Hourly Weather History & Observations

Time (EST) Temp. Windchill Dew Point Humidity Pressure Visibility Wind Dir Wind Speed Gust Speed Precip Events Conditions
12:34 AM 39.2 °F 35.9 °F 39.2 °F 100% 30.20 in 1.5 mi South 4.6 mph - N/A   Clear
12:53 AM 39.0 °F 35.7 °F 39.0 °F 100% 30.21 in 2.5 mi SSW 4.6 mph - N/A   Clear
1:06 AM 39.2 °F 37.0 °F 39.2 °F 100% 30.20 in 1.8 mi SSW 3.5 mph - N/A   Clear
1:10 AM 39.2 °F - 39.2 °F 100% 30.20 in 3.0 mi Calm Calm - N/A   Clear
1:53 AM 41.0 °F 39.0 °F 41.0 °F 100% 30.21 in 10.0 mi West 3.5 mph - N/A   Clear
2:53 AM 39.9 °F - 39.9 °F 100% 30.24 in 9.0 mi Calm Calm - N/A   Clear
3:53 AM 37.9 °F - 37.9 °F 100% 30.26 in 5.0 mi Calm Calm - N/A   Clear
3:58 AM 37.4 °F - 37.4 °F 100% 30.25 in 1.5 mi Calm Calm - N/A   Clear
4:08 AM 39.2 °F - 37.4 °F 93% 30.25 in 3.0 mi Calm Calm - N/A   Clear
4:23 AM 37.4 °F - 37.4 °F 100% 30.25 in 1.0 mi Calm Calm - N/A   Clear
4:26 AM 35.6 °F - 35.6 °F 100% 30.25 in 0.5 mi Calm Calm - N/A Fog Fog
4:34 AM 37.4 °F - 35.6 °F 93% 30.25 in 1.0 mi Calm Calm - N/A   Clear
4:53 AM 37.9 °F - 37.0 °F 97% 30.27 in 10.0 mi Calm Calm - N/A   Clear
5:53 AM 39.0 °F - 36.0 °F 89% 30.28 in 10.0 mi Calm Calm - N/A   Clear
6:53 AM 37.9 °F 34.4 °F 37.9 °F 100% 30.30 in 10.0 mi NNW 4.6 mph - N/A   Clear
7:53 AM 37.0 °F 31.6 °F 36.0 °F 96% 30.32 in 10.0 mi North 6.9 mph - N/A   Clear
9:53 AM 39.9 °F 33.9 °F 34.0 °F 79% 30.36 in 10.0 mi North 9.2 mph - N/A   Clear
10:53 AM 41.0 °F 35.8 °F 33.1 °F 73% 30.37 in 10.0 mi North 8.1 mph - N/A   Clear
11:53 AM 43.0 °F 38.8 °F 32.0 °F 65% 30.37 in 10.0 mi NNW 6.9 mph - N/A   Clear
12:53 PM 42.1 °F 38.4 °F 32.0 °F 67% 30.35 in 10.0 mi Variable 5.8 mph - N/A   Clear
1:53 PM 43.0 °F - 30.0 °F 60% 30.34 in - North - - N/A   Clear
2:10 PM 42.8 °F - 30.2 °F 61% 30.32 in 10.0 mi North - - N/A   Partly Cloudy
2:53 PM 43.0 °F - 28.9 °F 58% 30.33 in 10.0 mi North - - N/A   Clear
3:53 PM 42.1 °F 37.1 °F 28.0 °F 58% 30.34 in 10.0 mi North 8.1 mph - N/A   Clear
4:53 PM 37.9 °F 32.7 °F 28.0 °F 68% 30.34 in 10.0 mi NNE 6.9 mph - N/A   Clear
5:53 PM 35.1 °F 28.6 °F 27.0 °F 72% 30.35 in 10.0 mi NE 8.1 mph - N/A   Clear
6:53 PM 34.0 °F 29.8 °F 27.0 °F 75% 30.35 in 10.0 mi NE 4.6 mph - N/A   Clear
7:53 PM 33.1 °F 26.1 °F 27.0 °F 78% 30.35 in 10.0 mi ENE 8.1 mph - N/A   Clear
8:53 PM 30.0 °F 22.4 °F 25.0 °F 82% 30.35 in 10.0 mi NE 8.1 mph - N/A   Clear
9:53 PM 30.0 °F 23.2 °F 25.0 °F 82% 30.33 in 10.0 mi ENE 6.9 mph - N/A   Clear
10:53 PM 28.9 °F 23.9 °F 25.0 °F 85% 30.33 in 10.0 mi ENE 4.6 mph - N/A   Clear
11:53 PM 28.9 °F 21.9 °F 25.0 °F 85% 30.31 in 10.0 mi East 6.9 mph - N/A   Clear